Weather History for Anchorage Merrill, AK

Change the Weather History Date:

Monday, May 5, 2014

  Actual Average Record
Temperature  
Mean Temperature 47 °F -  
Max Temperature 52 °F 51 °F 66 °F (2004)
Min Temperature 42 °F 34 °F 30 °F (2001)
Degree Days  
Heating Degree Days 18    
Moisture  
Dew Point 38 °F    
Average Humidity 68    
Maximum Humidity 76    
Minimum Humidity 53    
Precipitation  
Precipitation 0.00 in - - ()
Sea Level Pressure  
Sea Level Pressure 29.88 in    
Wind  
Wind Speed 2 mph (NW)    
Max Wind Speed 10 mph    
Max Gust Speed -    
Visibility 10 miles    
Events      
Averages and records for this station are not official NWS values.
T = Trace of Precipitation, MM = Missing Value Source: NWS Daily Summary

Daily Weather History Graph

Daily Weather History Graph

Search for Another Location

Airport:

Trip Planner

Search our weather history database for the weather conditions in past years. The results will help you decide how hot, cold, wet, or windy it might be!

Date:

Astronomy

May. 05, 2014 Rise Set
Actual Time 5:38 AM AKDT 10:15 PM AKDT
Civil Twilight 4:38 AM AKDT 11:16 PM AKDT
Nautical Twilight 2:39 AM AKDT 1:26 AM AKDT
Astronomical Twilight Sun does not rise Sun does not rise
Moon 11:17 AM AKDT (5/5) 2:58 AM AKDT (5/5)
Length of Visible Light 18h 37m
Length of Day
16h 36m
Waxing Crescent, 38% of the Moon is Illuminated
May 5
Waxing Crescent
May 6
First Quarter
May 14
Full
May 21
Last Quarter
May 28
New

Hourly Weather History & Observations

Time (AKDT) Temp. Dew Point Humidity Pressure Visibility Wind Dir Wind Speed Gust Speed Precip Events Conditions
12:53 AM 46.0 °F 37.0 °F 71% 29.87 in 10.0 mi Calm Calm - N/A   Clear
1:53 AM 46.9 °F 37.0 °F 68% 29.87 in 10.0 mi Calm Calm - N/A   Clear
2:53 AM 46.0 °F 36.0 °F 68% 29.87 in 10.0 mi Calm Calm - N/A   Clear
3:53 AM 44.1 °F 36.0 °F 73% 29.88 in 10.0 mi Calm Calm - N/A   Clear
4:53 AM 45.0 °F 36.0 °F 71% 29.88 in 10.0 mi Calm Calm - N/A   Partly Cloudy
5:53 AM 43.0 °F 36.0 °F 76% 29.87 in 10.0 mi Calm Calm - N/A   Scattered Clouds
6:53 AM 42.1 °F 35.1 °F 76% 29.87 in 9.0 mi Calm Calm - N/A   Mostly Cloudy
7:53 AM 46.9 °F 37.0 °F 68% 29.87 in 10.0 mi East 3.5 mph - N/A   Clear
8:53 AM 50.0 °F 37.0 °F 61% 29.88 in 10.0 mi Calm Calm - N/A   Overcast
10:53 AM 52.0 °F 37.0 °F 57% 29.89 in 10.0 mi Calm Calm - N/A   Clear
11:53 AM 52.0 °F 35.1 °F 53% 29.89 in 10.0 mi WNW 6.9 mph - N/A   Clear
12:53 PM 52.0 °F 37.0 °F 57% 29.89 in 10.0 mi West 10.4 mph - N/A   Scattered Clouds
1:53 PM 48.9 °F 37.9 °F 66% 29.89 in 10.0 mi West 9.2 mph - N/A   Clear
2:53 PM 48.9 °F 39.0 °F 69% 29.89 in 10.0 mi West 9.2 mph - N/A   Clear
3:53 PM 46.9 °F 39.0 °F 74% 29.88 in 10.0 mi NW 6.9 mph - N/A   Clear
4:53 PM 48.9 °F 39.9 °F 71% 29.87 in 10.0 mi NW 8.1 mph - N/A   Clear
5:53 PM 51.1 °F 39.9 °F 66% 29.87 in 10.0 mi NW 5.8 mph - N/A   Overcast
6:53 PM 46.9 °F 39.0 °F 74% 29.87 in 10.0 mi WNW 9.2 mph - N/A   Clear
7:53 PM 48.0 °F 39.0 °F 71% 29.87 in 10.0 mi NW 4.6 mph - N/A   Clear
8:53 PM 48.9 °F 39.0 °F 69% 29.87 in 10.0 mi NW 3.5 mph - N/A   Scattered Clouds
9:53 PM 48.9 °F 39.9 °F 71% 29.88 in 10.0 mi Calm Calm - N/A   Scattered Clouds
10:53 PM 48.9 °F 39.0 °F 69% 29.89 in 10.0 mi Calm Calm - N/A   Clear
11:53 PM 48.0 °F 39.0 °F 71% 29.90 in 10.0 mi ESE 3.5 mph - N/A   Overcast